User: anonymous   Login
Location: Drayton Valley
(53.2170°N, 114.9830°W)
Time: 07:13:56
(UTC-06:00)
Language:

MOZ.5/SAFIR/RUBIN 5/SL-8 - Orbit

View from above orbital plane
View from above orbital plane
View from above satellite
View from above satellite

Ground track
Ground track

The orbit data is extracted from the following two-line orbital elements,

1 28898U 05043G   15086.13271511  .00000751  00000-0  16597-3 0  9992
2 28898 097.8419 265.1587 0019082 222.7300 137.2418 14.59821646501193
Epoch (UTC): 27 March 2015 03:11:06
Eccentricity: 0.0019082
inclination: 97.8419°
perigee height: 680 km
apogee height: 707 km
right ascension of ascending node: 265.1587°
argument of perigee: 222.7300°
revolutions per day: 14.59821646
mean anomaly at epoch: 137.2418°
orbit number at epoch: 50119

The dashed part of the orbit path shows where the satellite is in the earth's shadow,  

DLR